QPF
0.01 0.00 0.02 0.02 0.00 0.00 0.00 0.00 0.00 0.00 0.00 0.00 0.00 0.00 0.00 0.00 0.00 0.00 0.00 0.00 0.01 0.01 0.01 0.01 0.01 0.02 0.02 0.02 0.02 0.02 0.02 0.03 0.04 0.04 0.04 0.03 0.03 0.03 0.04 0.05 0.03 0.02 0.03
0.01 0.00 0.01 0.02 0.01 0.00 0.00 0.00 0.00 0.00 0.00 0.00 0.00 0.00 0.00 0.00 0.01 0.00 0.00 0.00 0.01 0.01 0.01 0.01 0.02 0.02 0.02 0.01 0.01 0.02 0.03 0.04 0.04 0.03 0.02 0.02 0.03 0.03 0.03 0.03 0.01 0.02 0.03
0.01 0.00 0.01 0.01 0.01 0.00 0.01 0.00 0.00 0.00 0.00 0.00 0.00 0.00 0.00 0.00 0.01 0.01 0.00 0.01 0.01 0.01 0.01 0.01 0.01 0.01 0.01 0.01 0.02 0.03 0.04 0.06 0.06 0.04 0.02 0.01 0.03 0.04 0.02 0.03 0.04 0.03 0.03
0.00 0.00 0.00 0.01 0.01 0.00 0.00 0.01 0.01 0.01 0.01 0.01 0.01 0.01 0.01 0.01 0.01 0.01 0.01 0.01 0.01 0.01 0.01 0.01 0.01 0.01 0.01 0.01 0.02 0.04 0.05 0.06 0.07 0.05 0.02 0.01 0.01 0.01 0.02 0.03 0.03 0.04 0.03
0.00 0.00 0.00 0.01 0.00 0.00 0.00 0.01 0.01 0.01 0.01 0.01 0.01 0.01 0.02 0.01 0.01 0.01 0.01 0.01 0.02 0.02 0.01 0.01 0.01 0.01 0.01 0.01 0.02 0.04 0.06 0.09 0.08 0.04 0.01 0.00 0.01 0.02 0.01 0.02 0.03 0.03 0.03
0.00 0.01 0.00 0.00 0.00 0.01 0.01 0.01 0.01 0.01 0.01 0.01 0.01 0.01 0.02 0.01 0.01 0.01 0.01 0.01 0.02 0.02 0.01 0.01 0.01 0.02 0.01 0.01 0.02 0.04 0.06 0.09 0.07 0.03 0.01 0.00 0.00 0.01 0.01 0.01 0.02 0.02 0.02
0.01 0.01 0.01 0.00 0.00 0.01 0.01 0.01 0.01 0.02 0.01 0.01 0.02 0.01 0.02 0.01 0.01 0.01 0.01 0.02 0.02 0.02 0.02 0.02 0.02 0.02 0.02 0.03 0.03 0.04 0.06 0.08 0.04 0.01 0.00 0.00 0.00 0.01 0.01 0.01 0.01 0.01 0.01
0.01 0.01 0.02 0.01 0.01 0.01 0.01 0.02 0.02 0.02 0.02 0.01 0.02 0.01 0.01 0.01 0.01 0.01 0.01 0.02 0.02 0.02 0.02 0.02 0.02 0.02 0.02 0.02 0.02 0.03 0.06 0.09 0.05 0.02 0.01 0.00 0.01 0.01 0.00 0.01 0.01 0.01 0.01
0.03 0.01 0.01 0.01 0.01 0.01 0.01 0.01 0.02 0.02 0.02 0.02 0.02 0.01 0.01 0.01 0.01 0.01 0.02 0.02 0.02 0.01 0.01 0.01 0.01 0.01 0.01 0.02 0.02 0.03 0.06 0.09 0.07 0.04 0.02 0.00 0.00 0.00 0.00 0.01 0.01 0.01 0.01
0.03 0.03 0.02 0.01 0.01 0.01 0.01 0.02 0.01 0.02 0.02 0.02 0.02 0.01 0.01 0.01 0.01 0.01 0.02 0.02 0.02 0.01 0.01 0.01 0.01 0.01 0.02 0.02 0.03 0.05 0.07 0.08 0.07 0.05 0.04 0.00 0.00 0.00 0.00 0.01 0.01 0.01 0.01
0.03 0.04 0.03 0.02 0.02 0.01 0.00 0.01 0.01 0.01 0.01 0.01 0.02 0.02 0.02 0.01 0.01 0.01 0.01 0.02 0.02 0.01 0.01 0.02 0.02 0.02 0.02 0.02 0.04 0.05 0.06 0.11 0.09 0.07 0.06 0.01 0.01 0.01 0.01 0.01 0.01 0.01 0.01
0.05 0.06 0.08 0.05 0.04 0.02 0.00 0.00 0.00 0.00 0.00 0.00 0.00 0.01 0.01 0.01 0.01 0.01 0.02 0.02 0.02 0.01 0.02 0.03 0.03 0.03 0.02 0.02 0.04 0.07 0.11 0.12 0.09 0.07 0.06 0.01 0.01 0.01 0.01 0.01 0.01 0.00 0.01
0.08 0.07 0.08 0.08 0.06 0.04 0.01 0.00 0.00 0.01 0.01 0.01 0.01 0.02 0.02 0.01 0.01 0.01 0.01 0.02 0.02 0.02 0.01 0.01 0.02 0.02 0.04 0.06 0.09 0.10 0.15 0.12 0.12 0.06 0.03 0.02 0.01 0.01 0.01 0.01 0.01 0.00 0.00
0.07 0.08 0.09 0.11 0.15 0.10 0.04 0.02 0.02 0.02 0.02 0.01 0.02 0.02 0.03 0.02 0.02 0.02 0.01 0.01 0.01 0.01 0.01 0.02 0.03 0.05 0.06 0.07 0.11 0.11 0.13 0.11 0.13 0.06 0.03 0.02 0.02 0.01 0.01 0.01 0.01 0.00 0.00
0.05 0.08 0.12 0.18 0.21 0.15 0.06 0.04 0.03 0.03 0.02 0.02 0.04 0.04 0.03 0.03 0.02 0.02 0.02 0.02 0.03 0.02 0.02 0.02 0.04 0.06 0.06 0.06 0.07 0.09 0.11 0.11 0.13 0.07 0.02 0.02 0.02 0.02 0.02 0.01 0.01 0.00 0.00
0.05 0.09 0.16 0.28 0.23 0.16 0.09 0.08 0.07 0.04 0.05 0.05 0.08 0.06 0.05 0.04 0.03 0.02 0.03 0.02 0.03 0.02 0.02 0.02 0.03 0.04 0.05 0.06 0.10 0.07 0.06 0.06 0.06 0.07 0.03 0.02 0.02 0.02 0.01 0.01 0.01 0.01 0.01
0.07 0.13 0.16 0.22 0.19 0.18 0.12 0.09 0.08 0.07 0.05 0.06 0.09 0.06 0.05 0.06 0.06 0.04 0.05 0.05 0.05 0.03 0.03 0.03 0.04 0.03 0.05 0.07 0.08 0.07 0.06 0.06 0.05 0.05 0.04 0.03 0.02 0.02 0.03 0.03 0.03 0.03 0.03
0.08 0.09 0.13 0.17 0.15 0.16 0.17 0.14 0.13 0.09 0.06 0.06 0.09 0.06 0.06 0.09 0.09 0.03 0.04 0.03 0.03 0.03 0.03 0.04 0.05 0.05 0.05 0.07 0.07 0.07 0.06 0.06 0.05 0.04 0.03 0.03 0.02 0.01 0.03 0.04 0.03 0.03 0.04
0.10 0.13 0.17 0.21 0.17 0.14 0.15 0.16 0.16 0.10 0.08 0.08 0.06 0.05 0.06 0.06 0.05 0.02 0.02 0.02 0.01 0.02 0.03 0.04 0.03 0.04 0.04 0.06 0.04 0.05 0.06 0.07 0.05 0.03 0.03 0.03 0.03 0.03 0.02 0.03 0.04 0.03 0.03
0.12 0.16 0.18 0.19 0.20 0.17 0.15 0.15 0.15 0.15 0.13 0.10 0.06 0.05 0.05 0.06 0.04 0.02 0.01 0.02 0.01 0.01 0.02 0.03 0.03 0.03 0.03 0.05 0.06 0.08 0.07 0.06 0.05 0.03 0.04 0.04 0.04 0.04 0.04 0.03 0.02 0.02 0.04
0.11 0.13 0.14 0.15 0.22 0.20 0.14 0.14 0.12 0.15 0.15 0.12 0.08 0.05 0.04 0.05 0.04 0.04 0.03 0.02 0.01 0.01 0.01 0.02 0.02 0.03 0.05 0.05 0.07 0.09 0.08 0.06 0.05 0.04 0.05 0.06 0.06 0.04 0.05 0.04 0.02 0.01 0.01
0.09 0.12 0.15 0.14 0.15 0.19 0.13 0.13 0.12 0.11 0.10 0.10 0.11 0.07 0.04 0.03 0.03 0.04 0.04 0.02 0.02 0.02 0.02 0.01 0.01 0.02 0.03 0.03 0.04 0.04 0.05 0.06 0.04 0.04 0.04 0.05 0.04 0.05 0.08 0.08 0.03 0.02 0.01
0.08 0.11 0.12 0.09 0.10 0.13 0.10 0.10 0.10 0.10 0.10 0.10 0.09 0.08 0.04 0.03 0.02 0.02 0.04 0.03 0.02 0.02 0.01 0.01 0.02 0.03 0.02 0.02 0.02 0.02 0.02 0.02 0.03 0.03 0.02 0.02 0.03 0.05 0.04 0.05 0.05 0.03 0.03
0.06 0.08 0.07 0.06 0.09 0.10 0.08 0.06 0.06 0.05 0.10 0.09 0.05 0.05 0.05 0.04 0.03 0.03 0.04 0.05 0.04 0.02 0.01 0.01 0.02 0.02 0.01 0.01 0.02 0.01 0.01 0.00 0.01 0.01 0.03 0.04 0.03 0.04 0.05 0.05 0.04 0.03 0.04
0.04 0.05 0.05 0.06 0.07 0.07 0.06 0.06 0.06 0.05 0.08 0.09 0.07 0.07 0.07 0.06 0.05 0.04 0.05 0.04 0.03 0.02 0.01 0.02 0.02 0.01 0.01 0.01 0.01 0.01 0.01 0.01 0.00 0.01 0.02 0.03 0.04 0.03 0.02 0.03 0.02 0.02 0.03
0.05 0.05 0.06 0.06 0.06 0.07 0.06 0.06 0.05 0.04 0.05 0.07 0.06 0.06 0.05 0.06 0.06 0.05 0.05 0.05 0.04 0.04 0.02 0.02 0.03 0.03 0.02 0.02 0.02 0.01 0.01 0.01 0.01 0.01 0.01 0.01 0.02 0.02 0.03 0.03 0.02 0.02 0.02
MSLP
1012.74 1012.41 1012.27 1012.37 1012.65 1013.05 1013.48 1013.83 1014.07 1014.16 1014.14 1014.08 1014.04 1014.08 1014.22 1014.44 1014.72 1015.00 1015.22 1015.36 1015.42 1015.42 1015.39 1015.38 1015.43 1015.55 1015.73 1015.94 1016.16 1016.35 1016.48 1016.57 1016.63 1016.68 1016.76 1016.87 1017.04 1017.24 1017.47 1017.70 1017.90 1018.07 1018.22
1012.51 1012.31 1012.28 1012.43 1012.74 1013.14 1013.54 1013.87 1014.09 1014.19 1014.20 1014.19 1014.21 1014.30 1014.48 1014.74 1015.02 1015.29 1015.50 1015.62 1015.65 1015.64 1015.60 1015.59 1015.64 1015.76 1015.94 1016.15 1016.36 1016.54 1016.68 1016.79 1016.87 1016.95 1017.05 1017.20 1017.38 1017.60 1017.84 1018.06 1018.27 1018.44 1018.58
1012.26 1012.18 1012.24 1012.45 1012.79 1013.19 1013.58 1013.91 1014.13 1014.25 1014.30 1014.33 1014.40 1014.54 1014.74 1014.99 1015.26 1015.50 1015.66 1015.75 1015.77 1015.74 1015.72 1015.72 1015.79 1015.92 1016.11 1016.32 1016.54 1016.73 1016.89 1017.02 1017.13 1017.25 1017.40 1017.57 1017.77 1017.99 1018.22 1018.43 1018.62 1018.79 1018.93
1012.06 1012.08 1012.22 1012.49 1012.86 1013.26 1013.66 1013.98 1014.21 1014.36 1014.45 1014.53 1014.63 1014.78 1014.98 1015.20 1015.43 1015.61 1015.73 1015.79 1015.79 1015.77 1015.77 1015.82 1015.92 1016.08 1016.28 1016.51 1016.74 1016.94 1017.13 1017.29 1017.45 1017.61 1017.78 1017.98 1018.19 1018.40 1018.61 1018.80 1018.97 1019.12 1019.26
1011.98 1012.09 1012.30 1012.61 1013.00 1013.41 1013.79 1014.11 1014.36 1014.52 1014.64 1014.75 1014.87 1015.02 1015.20 1015.38 1015.55 1015.67 1015.75 1015.78 1015.79 1015.80 1015.84 1015.93 1016.08 1016.28 1016.51 1016.75 1016.99 1017.21 1017.41 1017.60 1017.79 1017.99 1018.19 1018.41 1018.62 1018.81 1018.99 1019.15 1019.29 1019.42 1019.55
1012.06 1012.23 1012.49 1012.83 1013.23 1013.63 1014.00 1014.31 1014.54 1014.72 1014.85 1014.98 1015.11 1015.25 1015.40 1015.54 1015.66 1015.73 1015.78 1015.80 1015.83 1015.88 1015.98 1016.13 1016.33 1016.57 1016.82 1017.07 1017.30 1017.52 1017.73 1017.94 1018.15 1018.37 1018.60 1018.82 1019.03 1019.20 1019.35 1019.47 1019.57 1019.68 1019.80
1012.28 1012.50 1012.80 1013.16 1013.54 1013.92 1014.25 1014.53 1014.75 1014.91 1015.06 1015.19 1015.33 1015.47 1015.60 1015.71 1015.79 1015.84 1015.88 1015.91 1015.97 1016.07 1016.23 1016.44 1016.69 1016.96 1017.22 1017.46 1017.68 1017.88 1018.08 1018.28 1018.50 1018.74 1018.98 1019.21 1019.40 1019.56 1019.67 1019.75 1019.83 1019.91 1020.03
1012.58 1012.85 1013.18 1013.54 1013.90 1014.24 1014.52 1014.75 1014.93 1015.08 1015.22 1015.36 1015.52 1015.67 1015.80 1015.91 1015.99 1016.04 1016.08 1016.13 1016.23 1016.39 1016.60 1016.86 1017.15 1017.43 1017.68 1017.90 1018.09 1018.25 1018.42 1018.61 1018.82 1019.06 1019.31 1019.54 1019.73 1019.87 1019.96 1020.02 1020.07 1020.14 1020.25
1012.88 1013.20 1013.55 1013.91 1014.24 1014.53 1014.75 1014.92 1015.06 1015.19 1015.33 1015.49 1015.67 1015.86 1016.02 1016.15 1016.25 1016.31 1016.38 1016.46 1016.59 1016.79 1017.04 1017.34 1017.64 1017.92 1018.16 1018.34 1018.49 1018.61 1018.74 1018.90 1019.10 1019.33 1019.58 1019.81 1020.01 1020.14 1020.23 1020.27 1020.31 1020.37 1020.47
1013.10 1013.46 1013.85 1014.21 1014.52 1014.76 1014.92 1015.03 1015.13 1015.23 1015.38 1015.57 1015.80 1016.04 1016.25 1016.43 1016.56 1016.65 1016.74 1016.84 1017.00 1017.21 1017.48 1017.79 1018.09 1018.37 1018.59 1018.74 1018.85 1018.94 1019.03 1019.17 1019.35 1019.57 1019.82 1020.05 1020.26 1020.40 1020.49 1020.53 1020.57 1020.62 1020.72
1013.17 1013.60 1014.03 1014.41 1014.70 1014.90 1015.01 1015.07 1015.13 1015.23 1015.39 1015.63 1015.91 1016.21 1016.49 1016.73 1016.90 1017.02 1017.12 1017.23 1017.38 1017.59 1017.86 1018.16 1018.46 1018.72 1018.93 1019.07 1019.17 1019.23 1019.31 1019.42 1019.58 1019.79 1020.04 1020.28 1020.49 1020.65 1020.75 1020.81 1020.85 1020.90 1020.99
1013.08 1013.58 1014.06 1014.46 1014.76 1014.93 1015.01 1015.05 1015.09 1015.19 1015.38 1015.66 1016.01 1016.38 1016.73 1017.01 1017.22 1017.36 1017.46 1017.56 1017.69 1017.88 1018.12 1018.41 1018.70 1018.97 1019.18 1019.33 1019.43 1019.50 1019.57 1019.67 1019.82 1020.02 1020.26 1020.50 1020.71 1020.89 1021.01 1021.08 1021.14 1021.19 1021.28
1012.85 1013.43 1013.96 1014.40 1014.70 1014.87 1014.94 1014.97 1015.01 1015.13 1015.35 1015.69 1016.09 1016.52 1016.93 1017.26 1017.50 1017.65 1017.74 1017.81 1017.91 1018.06 1018.28 1018.54 1018.83 1019.11 1019.35 1019.54 1019.67 1019.76 1019.85 1019.95 1020.09 1020.27 1020.48 1020.71 1020.92 1021.11 1021.25 1021.35 1021.42 1021.48 1021.56
1012.53 1013.17 1013.75 1014.23 1014.55 1014.74 1014.82 1014.86 1014.92 1015.06 1015.32 1015.69 1016.14 1016.62 1017.07 1017.43 1017.69 1017.85 1017.92 1017.97 1018.03 1018.15 1018.34 1018.59 1018.89 1019.20 1019.48 1019.72 1019.90 1020.03 1020.14 1020.25 1020.37 1020.52 1020.71 1020.90 1021.10 1021.28 1021.44 1021.56 1021.65 1021.73 1021.82
1012.18 1012.85 1013.48 1013.99 1014.35 1014.56 1014.67 1014.73 1014.82 1014.99 1015.27 1015.68 1016.15 1016.66 1017.13 1017.51 1017.78 1017.94 1018.01 1018.04 1018.08 1018.18 1018.35 1018.61 1018.92 1019.26 1019.60 1019.89 1020.13 1020.31 1020.45 1020.55 1020.66 1020.77 1020.90 1021.05 1021.22 1021.39 1021.54 1021.68 1021.81 1021.91 1022.01
1011.84 1012.54 1013.19 1013.72 1014.10 1014.35 1014.50 1014.60 1014.72 1014.92 1015.22 1015.63 1016.10 1016.61 1017.08 1017.46 1017.74 1017.91 1017.99 1018.04 1018.08 1018.18 1018.36 1018.63 1018.96 1019.34 1019.72 1020.07 1020.36 1020.58 1020.74 1020.84 1020.91 1020.97 1021.04 1021.14 1021.25 1021.39 1021.54 1021.70 1021.85 1021.99 1022.11
1011.58 1012.27 1012.91 1013.45 1013.86 1014.15 1014.34 1014.48 1014.64 1014.85 1015.15 1015.54 1015.99 1016.46 1016.91 1017.30 1017.59 1017.78 1017.90 1017.97 1018.06 1018.19 1018.39 1018.68 1019.04 1019.44 1019.86 1020.24 1020.57 1020.81 1020.98 1021.07 1021.10 1021.11 1021.12 1021.14 1021.20 1021.31 1021.44 1021.61 1021.78 1021.95 1022.11
1011.41 1012.06 1012.68 1013.21 1013.63 1013.96 1014.20 1014.39 1014.58 1014.80 1015.08 1015.43 1015.83 1016.25 1016.66 1017.02 1017.32 1017.55 1017.72 1017.86 1018.01 1018.19 1018.44 1018.75 1019.13 1019.55 1019.98 1020.38 1020.72 1020.98 1021.15 1021.22 1021.23 1021.18 1021.13 1021.09 1021.10 1021.15 1021.26 1021.42 1021.62 1021.82 1022.01
1011.34 1011.94 1012.50 1013.01 1013.45 1013.80 1014.09 1014.33 1014.55 1014.78 1015.03 1015.32 1015.64 1015.99 1016.34 1016.68 1016.98 1017.25 1017.49 1017.71 1017.94 1018.19 1018.48 1018.82 1019.21 1019.63 1020.06 1020.46 1020.80 1021.06 1021.23 1021.30 1021.29 1021.21 1021.12 1021.03 1020.97 1020.98 1021.06 1021.20 1021.38 1021.60 1021.81
1011.37 1011.89 1012.39 1012.87 1013.30 1013.69 1014.03 1014.32 1014.57 1014.80 1015.02 1015.24 1015.47 1015.73 1016.01 1016.30 1016.61 1016.92 1017.23 1017.53 1017.84 1018.16 1018.50 1018.87 1019.26 1019.66 1020.07 1020.45 1020.79 1021.06 1021.24 1021.32 1021.31 1021.23 1021.11 1020.99 1020.89 1020.84 1020.87 1020.97 1021.13 1021.33 1021.55
1011.45 1011.89 1012.32 1012.76 1013.19 1013.61 1014.00 1014.34 1014.63 1014.86 1015.05 1015.21 1015.35 1015.52 1015.71 1015.96 1016.25 1016.58 1016.95 1017.33 1017.72 1018.10 1018.48 1018.86 1019.24 1019.62 1020.00 1020.37 1020.70 1020.98 1021.19 1021.31 1021.33 1021.28 1021.16 1021.02 1020.88 1020.79 1020.75 1020.78 1020.89 1021.05 1021.24
1011.57 1011.91 1012.27 1012.66 1013.09 1013.53 1013.97 1014.37 1014.71 1014.96 1015.13 1015.23 1015.30 1015.37 1015.49 1015.67 1015.94 1016.28 1016.68 1017.12 1017.56 1017.99 1018.40 1018.78 1019.14 1019.50 1019.85 1020.20 1020.54 1020.85 1021.10 1021.28 1021.37 1021.36 1021.28 1021.14 1020.97 1020.82 1020.71 1020.66 1020.68 1020.77 1020.90
1011.67 1011.93 1012.21 1012.55 1012.96 1013.43 1013.91 1014.37 1014.76 1015.05 1015.22 1015.29 1015.30 1015.31 1015.35 1015.48 1015.71 1016.04 1016.46 1016.92 1017.39 1017.84 1018.26 1018.63 1018.97 1019.30 1019.63 1019.97 1020.33 1020.67 1020.98 1021.24 1021.40 1021.47 1021.43 1021.31 1021.13 1020.93 1020.74 1020.60 1020.51 1020.50 1020.55
1011.73 1011.91 1012.11 1012.40 1012.79 1013.26 1013.78 1014.30 1014.74 1015.07 1015.27 1015.34 1015.32 1015.28 1015.27 1015.35 1015.54 1015.85 1016.26 1016.73 1017.20 1017.66 1018.07 1018.42 1018.74 1019.04 1019.35 1019.69 1020.06 1020.45 1020.83 1021.16 1021.41 1021.55 1021.57 1021.47 1021.29 1021.05 1020.79 1020.56 1020.37 1020.25 1020.20
1011.72 1011.83 1011.96 1012.19 1012.54 1013.01 1013.55 1014.11 1014.60 1014.98 1015.22 1015.31 1015.30 1015.24 1015.21 1015.25 1015.41 1015.69 1016.08 1016.53 1016.99 1017.43 1017.82 1018.16 1018.45 1018.73 1019.03 1019.37 1019.76 1020.18 1020.61 1021.01 1021.33 1021.54 1021.61 1021.55 1021.38 1021.12 1020.81 1020.50 1020.23 1020.01 1019.88
1011.65 1011.70 1011.77 1011.93 1012.24 1012.67 1013.21 1013.78 1014.31 1014.74 1015.01 1015.15 1015.16 1015.12 1015.09 1015.12 1015.26 1015.52 1015.88 1016.30 1016.74 1017.16 1017.53 1017.84 1018.11 1018.38 1018.67 1019.00 1019.40 1019.84 1020.30 1020.74 1021.12 1021.38 1021.50 1021.48 1021.32 1021.07 1020.75 1020.40 1020.08 1019.80 1019.61
Thickness
5786 5788 5787 5786 5784 5783 5782 5781 5780 5779 5778 5778 5777 5776 5774 5773 5771 5770 5768 5767 5765 5763 5762 5760 5759 5758 5757 5755 5754 5753 5752 5751 5750 5749 5747 5746 5745 5744 5742 5741 5740 5738 5737
5792 5789 5787 5786 5784 5782 5781 5780 5779 5778 5777 5776 5775 5774 5773 5771 5769 5768 5767 5765 5763 5762 5760 5759 5757 5756 5755 5753 5752 5751 5750 5749 5748 5747 5746 5744 5743 5742 5740 5739 5738 5737 5735
5793 5790 5787 5785 5783 5781 5779 5778 5777 5776 5775 5774 5773 5772 5771 5769 5768 5767 5765 5764 5762 5760 5759 5757 5756 5754 5753 5751 5750 5749 5747 5746 5745 5744 5743 5742 5741 5740 5739 5738 5737 5735 5734
5793 5789 5786 5784 5782 5780 5778 5777 5775 5774 5773 5772 5771 5770 5769 5768 5766 5765 5764 5762 5761 5759 5757 5755 5754 5752 5750 5749 5748 5746 5745 5744 5743 5741 5741 5740 5739 5738 5737 5736 5735 5733 5732
5791 5788 5785 5783 5781 5779 5777 5775 5773 5772 5771 5770 5769 5768 5767 5766 5765 5764 5763 5761 5759 5757 5755 5753 5752 5750 5748 5747 5745 5744 5743 5742 5741 5739 5738 5738 5737 5736 5735 5734 5733 5732 5731
5789 5787 5784 5781 5779 5777 5775 5773 5772 5771 5769 5768 5768 5767 5766 5765 5764 5763 5761 5759 5757 5755 5753 5751 5750 5748 5746 5745 5744 5743 5742 5740 5739 5737 5736 5736 5735 5734 5733 5733 5732 5731 5730
5788 5785 5782 5779 5777 5774 5773 5771 5770 5768 5767 5767 5766 5765 5764 5763 5762 5761 5759 5757 5755 5753 5751 5749 5748 5746 5745 5743 5742 5741 5740 5739 5737 5736 5734 5734 5733 5732 5732 5731 5730 5729 5728
5788 5783 5780 5777 5775 5772 5770 5769 5767 5766 5765 5764 5764 5763 5762 5761 5760 5759 5757 5755 5753 5752 5750 5748 5746 5745 5743 5742 5741 5740 5739 5737 5735 5734 5733 5732 5731 5730 5729 5729 5728 5727 5726
5786 5782 5778 5775 5773 5770 5768 5767 5765 5764 5763 5762 5761 5760 5760 5759 5758 5757 5755 5753 5752 5750 5748 5746 5745 5743 5742 5741 5740 5739 5737 5736 5734 5732 5731 5730 5729 5728 5728 5727 5726 5725 5724
5782 5779 5776 5773 5770 5768 5766 5765 5763 5762 5761 5760 5759 5758 5757 5756 5756 5754 5753 5751 5750 5748 5747 5745 5744 5742 5741 5740 5738 5737 5735 5734 5732 5731 5729 5728 5727 5727 5726 5725 5724 5724 5723
5777 5775 5773 5771 5768 5766 5765 5763 5761 5760 5759 5758 5757 5756 5755 5754 5753 5752 5751 5749 5748 5747 5745 5744 5743 5741 5740 5738 5737 5735 5734 5732 5730 5729 5728 5727 5726 5725 5724 5724 5723 5722 5721
5773 5772 5771 5769 5766 5764 5763 5761 5759 5757 5756 5755 5755 5753 5752 5751 5750 5750 5749 5748 5746 5745 5744 5743 5742 5741 5739 5737 5735 5734 5732 5731 5729 5728 5726 5725 5724 5724 5723 5722 5721 5720 5719
5775 5773 5770 5767 5765 5763 5761 5758 5756 5755 5753 5753 5752 5751 5750 5749 5749 5748 5747 5746 5745 5744 5743 5742 5741 5740 5739 5737 5735 5733 5732 5730 5728 5726 5725 5724 5723 5722 5722 5721 5720 5719 5718
5775 5771 5769 5767 5764 5762 5760 5757 5754 5752 5751 5751 5750 5750 5749 5748 5747 5747 5746 5745 5743 5742 5741 5740 5740 5739 5737 5736 5734 5732 5731 5729 5728 5727 5725 5723 5722 5721 5721 5720 5719 5717 5717
5774 5771 5769 5767 5763 5760 5757 5754 5752 5751 5751 5750 5749 5748 5748 5747 5747 5746 5745 5743 5742 5741 5740 5739 5739 5738 5737 5735 5734 5732 5730 5729 5728 5727 5725 5723 5722 5721 5720 5719 5718 5717 5716
5775 5770 5768 5765 5763 5759 5756 5753 5752 5751 5750 5750 5749 5748 5747 5747 5746 5745 5744 5743 5742 5741 5739 5738 5738 5737 5736 5735 5734 5733 5730 5729 5728 5726 5724 5723 5721 5720 5720 5719 5717 5716 5715
5775 5770 5766 5763 5760 5758 5755 5753 5751 5750 5750 5750 5749 5748 5747 5747 5746 5745 5744 5743 5743 5742 5740 5739 5738 5737 5736 5735 5734 5732 5730 5729 5728 5726 5724 5723 5721 5720 5720 5718 5717 5716 5715
5775 5769 5765 5763 5759 5757 5755 5752 5750 5750 5749 5749 5749 5748 5748 5747 5747 5746 5745 5743 5743 5741 5740 5739 5738 5736 5734 5733 5732 5732 5731 5729 5728 5726 5725 5723 5722 5721 5720 5719 5718 5717 5715
5774 5769 5764 5761 5757 5755 5753 5751 5749 5749 5749 5748 5748 5747 5747 5747 5747 5746 5745 5744 5742 5741 5740 5740 5738 5736 5733 5732 5732 5732 5731 5730 5729 5727 5725 5724 5723 5722 5721 5720 5719 5717 5716
5774 5769 5764 5761 5757 5754 5752 5750 5748 5747 5747 5747 5747 5747 5747 5746 5746 5745 5744 5743 5742 5741 5739 5739 5737 5736 5734 5733 5733 5732 5731 5730 5730 5728 5727 5725 5724 5723 5722 5721 5720 5718 5717
5771 5766 5763 5759 5757 5754 5750 5748 5745 5743 5744 5744 5745 5746 5746 5746 5745 5745 5744 5743 5742 5740 5739 5738 5737 5734 5732 5732 5728 5726 5728 5730 5729 5729 5728 5727 5726 5725 5723 5722 5721 5719 5718
5770 5766 5762 5759 5757 5754 5753 5750 5748 5746 5745 5745 5745 5745 5746 5745 5744 5744 5743 5742 5741 5740 5738 5737 5736 5733 5732 5732 5727 5720 5717 5719 5726 5730 5729 5728 5728 5726 5725 5723 5722 5720 5719
5769 5766 5763 5759 5757 5755 5754 5750 5748 5745 5743 5741 5742 5743 5744 5744 5744 5744 5743 5741 5740 5739 5737 5736 5736 5733 5729 5730 5731 5724 5715 5711 5717 5725 5728 5729 5728 5727 5726 5725 5723 5722 5720
5770 5767 5764 5760 5757 5755 5754 5750 5746 5743 5740 5740 5742 5742 5743 5744 5743 5743 5742 5741 5740 5739 5737 5737 5737 5735 5732 5728 5729 5730 5728 5725 5717 5716 5723 5727 5728 5728 5727 5726 5725 5723 5722
5771 5767 5764 5761 5757 5756 5754 5751 5747 5744 5743 5742 5742 5741 5741 5742 5742 5742 5741 5740 5739 5738 5737 5737 5736 5735 5733 5730 5728 5728 5727 5726 5724 5718 5715 5720 5724 5727 5728 5727 5725 5724 5723
5770 5767 5764 5760 5757 5756 5754 5751 5748 5745 5743 5741 5740 5739 5739 5740 5741 5741 5741 5740 5739 5738 5737 5736 5735 5734 5733 5731 5730 5729 5726 5724 5722 5719 5715 5716 5717 5723 5726 5726 5725 5724 5723